CZ-6A DEB, 64656

Orbit data source: Space-Track

CZ-6A DEB, 64656 is space debris in LEO originally from a launch on Tue, 06 Aug 2024 UTC launched from the Taiyaun Space Center, China (TSC). Debris objects in space refer to the collection of defunct objects orbiting the Earth. Examples of debris include non-operational satellites, rocket bodies, and fragments generated from explosions, collisions, or faulty payload assembly.

Loading next visibility...
Identifier
64656, 2024-140AEW
Orbit
LEO
Country
Flag of CNCN / PRC
Related business
Manufacturer
SAST
Mission
Spacecraft
Bus & Motor
Unknown
Mass
Unknown
Launch date (UTC)
2024-08-06 (1 year ago)
Launch vehicle
Unknown
Launch site
Taiyaun Space Center, China (TSC)
Object type
Payload
Rocket body
Debris
Shape & HBR
Unknown shape, 0.1 m
Radar Cross Section
Small (<0.1 m²)

Expand to show TLE details & history
Last TLE update: 18 hours ago

TLE from 18 hours ago
0 CZ-6A DEB
1 64656U 24140AEW 25354.28902637  .00003835  00000-0  13849-2 0  9990
2 64656  89.0261 295.4615 0017647  14.6974 345.4733 14.33340178 60305
Epoch: 2025-12-20T06:56Z
TLE epoch observation values (Epoch: 2025-12-20T06:56:11.878Z)
Latitude
Longitude
102.29404°
Altitude
771.43 km
Speed
7.475 km/s
True Right ascension
19h 41m 50s
True Declination
0° 00' 00"
Sunlit
Object was in daylight at epoch
Visualization orbit readout
Latitude
Unknown
Longitude
Unknown
Altitude
Unknown
Speed
Unknown
Apparent Right ascension
Unknown
Apparent Declination
Unknown
Sunlit
N/A
Visualization observer readout
Local Sidereal Time
00:22:36
Azimuth
Unknown
Elevation
Unknown
Doppler factor
Unknown
Orbital elements
Apogee altitude
790.147 km
Perigee altitude
764.892 km
Semi-major axis
7,155.657 km
Eccentricity
0.00176
Inclination
89.0261°
RAAN
295.4615°
Arg. of periapsis
14.6974°
True anomaly
345.42247°
Mean anomaly
345.4733°
Eccentric anomaly
345.4479°
Mean motion
3.58566 °/min
Orbital period
100.4 mins
BSTAR
0.0013849
Loading maneuver chart data...
Computing Atmospheric mass density...
Loading historical data...
Loading historical data...
Loading historical data...
Loading historical data...
Loading historical data...
Loading historical data...
Loading historical data...

Documentation

Showing up to 5 results
|